Location: Penzberg
(47.7615°N, 11.3159°E)
Time: 11:52:49
(UTC+02:00)

ISS - Visible Passes

Search period start: 20 May 2018 00:00
Search period end: 30 May 2018 00:00
Orbit: 402 x 407 km, 51.6° (Epoch: 20 May)

Date Brightness Start Highest point End Pass type
(mag) Time Alt. Az. Time Alt. Az. Time Alt. Az.
20 May -1.7 00:06:25 19° ENE 00:06:25 19° ENE 00:07:30 10° ENE visible
20 May -2.5 01:38:57 19° WNW 01:40:56 40° N 01:44:03 10° ENE visible
20 May -3.2 03:14:33 10° WNW 03:17:46 56° NNE 03:21:00 10° E visible
20 May -3.3 04:51:08 10° WNW 04:54:11 36° SW 04:57:13 10° SE visible
20 May -1.8 21:35:21 10° SSE 21:36:09 11° SE 21:36:57 10° ESE visible
20 May -3.9 23:08:50 10° SW 23:12:03 59° SSE 23:15:17 10° ENE visible
21 May -2.8 00:45:28 10° W 00:48:38 45° N 00:51:49 10° ENE visible
21 May -2.7 02:22:20 10° WNW 02:25:29 45° N 02:28:39 10° E visible
21 May -3.9 03:58:51 10° WNW 04:02:05 60° SSW 04:05:18 10° SE visible
21 May -3.3 22:16:56 10° SSW 22:19:57 35° SE 22:22:59 10° ENE visible
21 May -3.2 23:53:07 10° W 23:56:21 57° NNW 23:59:35 10° ENE visible
22 May -2.5 01:30:04 10° WNW 01:33:11 40° N 01:36:18 10° ENE visible
22 May -3.9 03:06:37 10° WNW 03:09:54 88° NNE 03:13:11 10° ESE visible
22 May -2.4 04:43:41 10° W 04:46:03 19° SW 04:48:24 10° S visible
22 May -3.8 23:00:49 10° WSW 23:04:06 78° NNW 23:07:23 10° ENE visible
23 May -2.4 00:37:44 10° WNW 00:40:51 40° N 00:43:58 10° ENE visible
23 May -3.4 02:14:25 10° WNW 02:17:40 62° NNE 02:20:55 10° E visible
23 May -3.1 03:51:05 10° W 03:54:00 30° SW 03:56:55 10° SSE visible
23 May -3.9 22:08:37 10° SW 22:11:52 70° SSE 22:15:08 10° ENE visible
23 May -2.6 23:45:22 10° W 23:48:31 43° N 23:51:40 10° ENE visible
24 May -2.9 01:22:10 10° WNW 01:25:22 48° NNE 01:27:48 15° E visible
24 May -2.3 02:58:42 10° WNW 03:00:12 24° W 03:00:12 24° W visible
24 May -3.0 22:52:58 10° W 22:56:11 52° NNW 22:59:23 10° ENE visible
25 May -2.6 00:29:53 10° WNW 00:33:02 41° N 00:35:35 14° ENE visible
25 May -2.4 02:06:25 10° WNW 02:08:09 29° WNW 02:08:09 29° WNW visible
25 May -3.5 22:00:36 10° WSW 22:03:52 69° NNW 22:07:08 10° ENE visible
25 May -2.4 23:37:32 10° WNW 23:40:39 39° N 23:43:46 10° ENE visible
26 May -3.4 01:14:10 10° WNW 01:17:03 61° NNW 01:17:03 61° NNW visible
26 May -2.5 22:45:08 10° W 22:48:16 41° N 22:51:24 10° ENE visible
27 May -3.1 00:21:54 10° WNW 00:25:06 52° NNE 00:26:10 35° ENE visible
27 May -1.2 01:58:27 10° WNW 01:58:47 12° WNW 01:58:47 12° WNW visible
27 May -2.8 21:52:42 10° W 21:55:53 48° NNW 21:59:05 10° ENE visible
27 May -2.7 23:29:35 10° WNW 23:32:44 43° N 23:35:23 13° E visible
28 May -2.5 01:06:06 10° WNW 01:08:01 32° WNW 01:08:01 32° WNW visible
28 May -2.5 22:37:13 10° WNW 22:40:21 40° N 22:43:27 10° ENE visible
29 May -3.9 00:13:48 10° WNW 00:17:05 79° NNE 00:17:18 73° ENE visible
29 May -2.5 21:44:47 10° WNW 21:47:55 40° N 21:51:03 10° ENE visible
29 May -3.3 23:21:30 10° WNW 23:24:45 57° NNE 23:26:37 22° E visible
